• In Belarus
  • List of Countries
  • For 7 days
  • Water Temperature
  • Weather Map
  • Weather Widgets
  • user-avatar
    Login

    Hourly Weather Kaprun

    Today, 8 April, Wednesday

    Time Temperature Precipitation Wind Pressure Humidity
    00:00 -2°C° 0 mm 2 mps 602 mmHg 66%
    01:00 -3°C° 0 mm 2 mps 602 mmHg 65%
    02:00 -3°C° 0 mm 2 mps 601 mmHg 65%
    03:00 -3°C° 0 mm 2 mps 601 mmHg 66%
    04:00 -3°C° 0 mm 2 mps 601 mmHg 67%
    05:00 0°C° 0 mm 1 mps 601 mmHg 64%
    06:00 +1°C° 0 mm 1 mps 602 mmHg 62%
    07:00 +2°C° 0 mm 1 mps 602 mmHg 60%
    08:00 +4°C° 0 mm 1 mps 603 mmHg 54%
    09:00 +6°C° 0 mm 1 mps 603 mmHg 49%
    10:00 +8°C° 0 mm 1 mps 604 mmHg 43%
    11:00 +9°C° 0 mm 1 mps 604 mmHg 42%
    12:00 +10°C° 0 mm 1 mps 604 mmHg 41%
    13:00 +11°C° 0 mm 1 mps 604 mmHg 40%
    14:00 +10°C° 0 mm 1 mps 604 mmHg 42%
    15:00 +10°C° 0 mm 1 mps 603 mmHg 43%
    16:00 +10°C° 0 mm 1 mps 603 mmHg 45%
    17:00 +7°C° 0 mm 1 mps 602 mmHg 58%
    18:00 +5°C° 0 mm 1 mps 600 mmHg 71%
    19:00 +1°C° 0 mm 0 mps 599 mmHg 84%
    20:00 +1°C° 0 mm 0 mps 599 mmHg 85%
    21:00 0°C° 0 mm 0 mps 600 mmHg 86%
    22:00 +1°C° 0 mm 1 mps 600 mmHg 86%
    23:00 +1°C° 0 mm 1 mps 600 mmHg 87%

    Tomorrow, 9 April, Thursday

    Time Temperature Precipitation Wind Pressure Humidity
    00:00 +1°C° 0 mm 1 mps 600 mmHg 88%
    01:00 +1°C° 0 mm 1 mps 600 mmHg 88%
    02:00 +1°C° 0 mm 1 mps 599 mmHg 89%
    03:00 +1°C° 0 mm 1 mps 599 mmHg 90%
    04:00 +1°C° 0 mm 1 mps 599 mmHg 90%
    05:00 +2°C° 0 mm 1 mps 599 mmHg 88%
    06:00 +2°C° 0 mm 1 mps 600 mmHg 87%
    07:00 +3°C° 0 mm 1 mps 600 mmHg 85%
    08:00 +5°C° 0.1 mm 1 mps 601 mmHg 79%
    09:00 +6°C° 0.1 mm 1 mps 601 mmHg 73%
    10:00 +7°C° 0.1 mm 2 mps 602 mmHg 67%
    11:00 +8°C° 0.1 mm 1 mps 602 mmHg 65%
    12:00 +8°C° 0.1 mm 1 mps 602 mmHg 62%
    13:00 +9°C° 0.1 mm 1 mps 602 mmHg 60%
    14:00 +8°C° 0.1 mm 2 mps 601 mmHg 62%
    15:00 +7°C° 0.1 mm 2 mps 601 mmHg 64%
    16:00 +7°C° 0.1 mm 2 mps 601 mmHg 66%
    17:00 +5°C° 0.2 mm 2 mps 600 mmHg 75%
    18:00 +5°C° 0.2 mm 1 mps 600 mmHg 84%
    19:00 +3°C° 0.2 mm 1 mps 599 mmHg 93%
    20:00 +3°C° 0.1 mm 1 mps 599 mmHg 93%
    21:00 +3°C° 0.1 mm 1 mps 600 mmHg 94%
    22:00 +2°C° 0.1 mm 1 mps 600 mmHg 94%
    23:00 +2°C° 0 mm 1 mps 600 mmHg 94%

    Day after tomorrow, 10 April, Friday

    Time Temperature Precipitation Wind Pressure Humidity
    00:00 +2°C° 0 mm 1 mps 600 mmHg 94%
    01:00 +1°C° 0 mm 1 mps 600 mmHg 94%
    02:00 +1°C° 0 mm 1 mps 599 mmHg 93%
    03:00 0°C° 0 mm 1 mps 599 mmHg 92%
    04:00 0°C° 0 mm 1 mps 598 mmHg 91%
    05:00 +1°C° 0 mm 1 mps 599 mmHg 88%
    06:00 +2°C° 0 mm 1 mps 600 mmHg 85%
    07:00 +2°C° 0 mm 0 mps 600 mmHg 82%
    08:00 +5°C° 0 mm 1 mps 601 mmHg 74%
    09:00 +6°C° 0 mm 1 mps 602 mmHg 67%
    10:00 +8°C° 0 mm 1 mps 602 mmHg 59%
    11:00 +9°C° 0 mm 1 mps 602 mmHg 56%
    12:00 +10°C° 0 mm 1 mps 603 mmHg 52%
    13:00 +10°C° 0 mm 1 mps 603 mmHg 49%
    14:00 +10°C° 0 mm 1 mps 602 mmHg 50%
    15:00 +10°C° 0 mm 1 mps 602 mmHg 52%
    16:00 +10°C° 0 mm 1 mps 601 mmHg 53%
    17:00 +7°C° 0 mm 1 mps 600 mmHg 64%
    18:00 +5°C° 0 mm 1 mps 599 mmHg 75%
    19:00 +3°C° 0 mm 1 mps 598 mmHg 85%
    20:00 +2°C° 0 mm 1 mps 598 mmHg 87%
    21:00 +2°C° 0 mm 1 mps 598 mmHg 89%
    22:00 +1°C° 0 mm 1 mps 598 mmHg 91%
    23:00 +1°C° 0 mm 1 mps 598 mmHg 90%

    11 April, Saturday

    Time Temperature Precipitation Wind Pressure Humidity
    00:00 0°C° 0 mm 0 mps 598 mmHg 90%
    01:00 0°C° 0 mm 0 mps 598 mmHg 90%
    02:00 +1°C° 0 mm 1 mps 598 mmHg 90%
    03:00 +1°C° 0 mm 1 mps 598 mmHg 90%
    04:00 +1°C° 0 mm 1 mps 598 mmHg 90%
    05:00 +2°C° 0 mm 1 mps 599 mmHg 87%
    06:00 +2°C° 0 mm 0 mps 599 mmHg 84%
    07:00 +3°C° 0 mm 0 mps 600 mmHg 81%
    08:00 +5°C° 0 mm 0 mps 601 mmHg 72%
    09:00 +8°C° 0 mm 1 mps 601 mmHg 63%
    10:00 +9°C° 0 mm 1 mps 602 mmHg 55%
    11:00 +10°C° 0 mm 1 mps 602 mmHg 52%
    12:00 +11°C° 0 mm 1 mps 602 mmHg 50%
    13:00 +11°C° 0 mm 1 mps 602 mmHg 47%
    14:00 +11°C° 0.1 mm 1 mps 602 mmHg 51%
    15:00 +10°C° 0.1 mm 1 mps 601 mmHg 56%
    16:00 +9°C° 0.1 mm 1 mps 601 mmHg 60%
    17:00 +8°C° 0.1 mm 1 mps 600 mmHg 70%
    18:00 +6°C° 0.1 mm 1 mps 599 mmHg 80%
    19:00 +3°C° 0.1 mm 0 mps 598 mmHg 90%
    20:00 +3°C° 0 mm 0 mps 598 mmHg 90%
    21:00 +3°C° 0 mm 1 mps 598 mmHg 91%
    22:00 +3°C° 0 mm 1 mps 598 mmHg 91%
    23:00 +3°C° 0 mm 1 mps 598 mmHg 91%

    12 April, Sunday

    Time Temperature Precipitation Wind Pressure Humidity
    00:00 +3°C° 0 mm 1 mps 598 mmHg 91%
    01:00 +3°C° 0 mm 1 mps 598 mmHg 91%
    02:00 +3°C° 0 mm 1 mps 598 mmHg 91%
    03:00 +3°C° 0 mm 1 mps 598 mmHg 91%
    04:00 +2°C° 0 mm 1 mps 597 mmHg 91%
    05:00 +3°C° 0 mm 1 mps 598 mmHg 88%
    06:00 +4°C° 0 mm 1 mps 598 mmHg 86%
    07:00 +4°C° 0 mm 1 mps 598 mmHg 83%
    08:00 +6°C° 0.1 mm 1 mps 598 mmHg 78%
    09:00 +7°C° 0.1 mm 1 mps 599 mmHg 73%
    10:00 +8°C° 0.1 mm 1 mps 599 mmHg 68%
    11:00 +9°C° 0.4 mm 1 mps 599 mmHg 67%
    12:00 +10°C° 0.4 mm 1 mps 598 mmHg 66%
    13:00 +10°C° 0.4 mm 1 mps 598 mmHg 65%
    14:00 +10°C° 1.1 mm 1 mps 597 mmHg 69%
    15:00 +8°C° 1.1 mm 2 mps 597 mmHg 72%
    16:00 +8°C° 1.1 mm 2 mps 596 mmHg 75%
    17:00 +6°C° 1 mm 2 mps 595 mmHg 81%
    18:00 +5°C° 1 mm 2 mps 594 mmHg 86%
    19:00 +4°C° 1 mm 2 mps 594 mmHg 91%
    20:00 +3°C° 0.5 mm 2 mps 594 mmHg 92%
    21:00 +3°C° 0.5 mm 2 mps 594 mmHg 93%
    22:00 +2°C° 0.5 mm 2 mps 594 mmHg 94%
    23:00 +3°C° 0.3 mm 1 mps 593 mmHg 94%

    13 April, Monday

    Time Temperature Precipitation Wind Pressure Humidity
    00:00 +3°C° 0.3 mm 1 mps 593 mmHg 94%
    01:00 +3°C° 0.3 mm 1 mps 593 mmHg 95%
    02:00 +2°C° 0.3 mm 1 mps 593 mmHg 94%
    03:00 +2°C° 0.3 mm 1 mps 593 mmHg 94%
    04:00 +2°C° 0.3 mm 1 mps 592 mmHg 94%
    05:00 +2°C° 0.1 mm 1 mps 593 mmHg 93%
    06:00 +3°C° 0.1 mm 1 mps 593 mmHg 91%
    07:00 +3°C° 0.1 mm 1 mps 593 mmHg 89%
    08:00 +4°C° 0.1 mm 1 mps 593 mmHg 83%
    09:00 +6°C° 0.1 mm 1 mps 594 mmHg 77%
    10:00 +7°C° 0.1 mm 1 mps 594 mmHg 70%
    11:00 +7°C° 0.3 mm 1 mps 594 mmHg 68%
    12:00 +8°C° 0.3 mm 1 mps 594 mmHg 66%
    13:00 +7°C° 0.3 mm 2 mps 594 mmHg 64%
    14:00 +7°C° 0.8 mm 2 mps 594 mmHg 68%
    15:00 +6°C° 0.8 mm 2 mps 593 mmHg 71%
    16:00 +5°C° 0.8 mm 2 mps 593 mmHg 75%
    17:00 +4°C° 0.9 mm 2 mps 592 mmHg 82%
    18:00 +4°C° 0.9 mm 1 mps 592 mmHg 89%
    19:00 +3°C° 0.9 mm 1 mps 591 mmHg 95%
    20:00 +2°C° 0.8 mm 1 mps 591 mmHg 96%
    21:00 +2°C° 0.8 mm 1 mps 591 mmHg 96%
    22:00 +2°C° 0.8 mm 1 mps 592 mmHg 97%
    23:00 +1°C° 1 mm 1 mps 592 mmHg 97%
    Show more